FW3843 Weather Reports


time (UTC)temp
C
wind
direction
speed
KPH
gust
KPH
rain 1hr
cm
rain 24hr
cm
rain mn
cm
humidity
%
barometer
mb
20260506015137 19 173 17.7 20.9 0.00 0.00 0.00 69 1015.2
20260506014136 20 200 14.5 24.1 0.00 0.00 0.00 67 1015.1
20260506013131 20 198 12.9 25.7 0.00 0.00 0.00 66 1014.9
20260506012129 20 176 11.3 16.1 0.00 0.00 0.00 66 1015.0
20260506011129 20 196 14.5 17.7 0.00 0.00 0.00 64 1014.6
20260506010124 20 164 9.7 17.7 0.00 0.00 0.00 62 1014.6
20260506005124 21 193 11.3 25.7 0.00 0.00 0.00 60 1014.6
20260506004124 21 181 17.7 24.1 0.00 0.00 0.00 61 1014.3
20260506003122 21 168 14.5 16.1 0.00 0.00 0.00 62 1014.3
20260506002120 21 181 8.0 11.3 0.00 0.00 0.00 62 1014.2
20260506001119 21 168 8.0 11.3 0.00 0.00 0.00 61 1014.1
20260506000119 22 167 9.7 11.3 0.00 0.00 0.00 59 1013.9
20260505235120 22 190 12.9 17.7 0.00 0.00 0.00 57 1013.9
20260505234119 23 178 11.3 16.1 0.00 0.00 0.00 57 1013.9
20260505233114 23 165 11.3 12.9 0.00 0.00 0.00 57 1013.8
20260505232114 23 182 11.3 16.1 0.00 0.00 0.00 56 1013.8
20260505231110 23 166 14.5 17.7 0.00 0.00 0.00 56 1013.9
20260505230109 24 166 19.3 24.1 0.00 0.00 0.00 54 1013.5
20260505225108 23 212 12.9 22.5 0.00 0.00 0.00 53 1014.0
20260505224107 24 185 11.3 17.7 0.00 0.00 0.00 53 1013.8
20260505223107 25 191 17.7 22.5 0.00 0.00 0.00 51 1013.9
20260505222105 25 201 14.5 14.5 0.00 0.00 0.00 51 1013.8
20260505221104 25 169 16.1 17.7 0.00 0.00 0.00 50 1013.9
20260505220100 25 183 19.3 20.9 0.00 0.00 0.00 49 1013.9
20260505215055 26 203 17.7 22.5 0.00 0.00 0.00 49 1013.8
20260505214055 26 201 12.9 14.5 0.00 0.00 0.00 49 1013.6
20260505213055 26 174 17.7 24.1 0.00 0.00 0.00 48 1013.8
20260505212055 26 177 16.1 22.5 0.00 0.00 0.00 49 1013.9
20260505211055 25 198 22.5 27.4 0.00 0.00 0.00 49 1014.0
20260505210054 26 189 11.3 17.7 0.00 0.00 0.00 50 1014.0
20260505205049 26 154 20.9 29.0 0.00 0.00 0.00 49 1013.8
20260505204049 26 212 17.7 22.5 0.00 0.00 0.00 47 1014.0
20260505203049 26 170 14.5 17.7 0.00 0.00 0.00 48 1013.7
20260505202046 26 189 11.3 17.7 0.00 0.00 0.00 50 1014.2
20260505201041 26 188 14.5 20.9 0.00 0.00 0.00 46 1014.1
20260505200036 26 197 14.5 20.9 0.00 0.00 0.00 48 1014.5
20260505195035 25 196 12.9 17.7 0.00 0.00 0.00 50 1014.6
20260505194033 26 193 9.7 16.1 0.00 0.00 0.00 52 1014.9
20260505193028 26 147 9.7 16.1 0.00 0.00 0.00 50 1014.9
20260505192024 26 133 17.7 20.9 0.00 0.00 0.00 49 1015.0
20260505191020 26 182 14.5 17.7 0.00 0.00 0.00 48 1015.4
20260505190016 26 179 16.1 24.1 0.00 0.00 0.00 50 1015.5
20260505185015 25 139 14.5 16.1 0.00 0.00 0.00 51 1015.6
20260505184015 25 181 12.9 20.9 0.00 0.00 0.00 52 1015.5
20260505183015 25 183 16.1 20.9 0.00 0.00 0.00 50 1015.6
20260505182014 26 193 11.3 17.7 0.00 0.00 0.00 48 1015.9
20260505181014 26 195 17.7 22.5 0.00 0.00 0.00 47 1015.8
20260505180014 26 185 16.1 20.9 0.00 0.00 0.00 53 1016.0
20260505175012 25 182 6.4 16.1 0.00 0.00 0.00 54 1016.0
20260505174010 25 168 14.5 24.1 0.00 0.00 0.00 53 1016.0
20260505173009 25 273 8.0 16.1 0.00 0.00 0.00 52 1016.1
20260505172008 25 172 11.3 17.7 0.00 0.00 0.00 51 1016.3
20260505171007 25 187 11.3 22.5 0.00 0.00 0.00 55 1016.1
20260505170006 24 240 8.0 20.9 0.00 0.00 0.00 56 1016.2
20260505165003 25 177 12.9 20.9 0.00 0.00 0.00 55 1016.2
20260505164003 24 235 11.3 17.7 0.00 0.00 0.00 53 1016.2
20260505163001 24 181 17.7 24.1 0.00 0.00 0.00 53 1016.4
20260505161959 23 240 11.3 14.5 0.00 0.00 0.00 58 1016.6
20260505160959 23 155 12.9 14.5 0.00 0.00 0.00 57 1016.8
20260505152957 22 254 14.5 22.5 0.00 0.00 0.00 61 1017.2
20260505151955 22 221 11.3 20.9 0.00 0.00 0.00 61 1017.0
20260505150954 22 204 14.5 20.9 0.00 0.00 0.00 60 1016.8
20260505124920 17 183 9.7 12.9 0.00 0.00 0.00 75 1017.1
20260505123919 17 218 11.3 12.9 0.00 0.00 0.00 76 1017.2
20260505122917 17 217 11.3 14.5 0.00 0.00 0.00 76 1017.3
20260505121917 16 217 8.0 11.3 0.00 0.00 0.00 77 1017.0
20260505120916 16 219 6.4 9.7 0.00 0.00 0.00 78 1016.9
20260505115911 15 226 4.8 9.7 0.00 0.00 0.00 79 1016.9
20260505114906 15 203 8.0 9.7 0.00 0.00 0.00 79 1016.8
20260505113904 15 185 4.8 4.8 0.00 0.00 0.00 82 1016.8
20260505112902 14 191 4.8 4.8 0.00 0.00 0.00 83 1016.7
20260505111902 13 193 6.4 8.0 0.00 0.00 0.00 85 1016.5
20260505110859 13 198 1.6 3.2 0.00 0.00 0.00 88 1016.6
20260505101850 12 191 4.8 8.0 0.00 0.00 0.00 86 1015.9
20260505100847 12 191 4.8 4.8 0.00 0.00 0.00 85 1015.7
20260505095845 12 210 3.2 3.2 0.00 0.00 0.00 84 1015.6
20260505094844 13 221 6.4 8.0 0.00 0.00 0.00 84 1015.5
20260505093843 13 212 6.4 9.7 0.00 0.00 0.00 82 1015.6
20260505092838 13 214 4.8 4.8 0.00 0.00 0.00 81 1015.4
20260505091838 13 213 6.4 9.7 0.00 0.00 0.00 80 1015.6
20260505090834 13 216 3.2 8.0 0.00 0.00 0.00 80 1015.4
20260505085829 13 224 4.8 8.0 0.00 0.00 0.00 79 1015.1
20260505084825 13 232 4.8 4.8 0.00 0.00 0.00 79 1015.3
20260505083820 14 221 8.0 11.3 0.00 0.00 0.00 77 1015.1
20260505082820 14 217 4.8 9.7 0.00 0.00 0.00 77 1015.3
20260505081819 14 233 4.8 8.0 0.00 0.00 0.00 77 1015.2
20260505080818 15 213 4.8 11.3 0.00 0.00 0.00 75 1015.2
20260505075815 15 213 8.0 9.7 0.00 0.00 0.00 76 1015.0
20260505074815 15 204 3.2 9.7 0.00 0.00 0.00 76 1015.0
20260505073810 15 178 6.4 9.7 0.00 0.00 0.00 75 1015.2
20260505072810 15 218 4.8 9.7 0.00 0.00 0.00 75 1015.1
20260505071808 15 228 8.0 12.9 0.00 0.00 0.00 74 1014.9
20260505070803 15 221 4.8 11.3 0.00 0.00 0.00 74 1014.9
20260505065800 15 211 6.4 11.3 0.00 0.00 0.00 74 1015.0
20260505064800 15 213 9.7 14.5 0.00 0.00 0.00 74 1014.9
20260505063755 15 219 8.0 12.9 0.00 0.00 0.00 74 1014.8
20260505062754 15 188 11.3 12.9 0.00 0.00 0.00 73 1015.1
20260505061754 15 228 8.0 14.5 0.00 0.00 0.00 74 1015.1
20260505060749 15 210 6.4 11.3 0.00 0.00 0.00 73 1015.1
20260505055747 15 196 8.0 12.9 0.00 0.00 0.00 73 1015.2
20260505054747 15 196 9.7 12.9 0.00 0.00 0.00 73 1015.2
20260505053743 15 219 8.0 14.5 0.00 0.00 0.00 73 1015.4
20260505052742 15 200 8.0 9.7 0.00 0.00 0.00 73 1015.4
20260505051742 16 211 11.3 14.5 0.00 0.00 0.00 72 1015.5
20260505050738 16 204 9.7 11.3 0.00 0.00 0.00 73 1015.3
20260505041734 16 180 11.3 12.9 0.00 0.00 0.00 70 1015.3
20260505040734 16 188 11.3 12.9 0.00 0.00 0.00 70 1015.4
20260505035734 16 189 6.4 11.3 0.00 0.00 0.00 71 1015.4
20260505034733 16 197 12.9 17.7 0.00 0.00 0.00 68 1015.2
20260505033732 16 195 11.3 16.1 0.00 0.00 0.00 69 1015.4
20260505032728 16 196 8.0 14.5 0.00 0.00 0.00 68 1015.2
20260505031727 17 190 8.0 11.3 0.00 0.00 0.00 68 1015.3
20260505030726 17 185 8.0 11.3 0.00 0.00 0.00 68 1015.3
20260505025723 17 203 8.0 14.5 0.00 0.00 0.00 67 1015.3
20260505024720 17 181 14.5 22.5 0.00 0.00 0.00 66 1015.2
20260505023720 17 198 11.3 14.5 0.00 0.00 0.00 66 1015.3
20260505022715 17 199 9.7 14.5 0.00 0.00 0.00 66 1015.3
20260505021714 17 171 11.3 16.1 0.00 0.00 0.00 66 1015.2
20260505020712 18 200 16.1 17.7 0.00 0.00 0.00 65 1015.1
20260505015711 18 197 9.7 16.1 0.00 0.00 0.00 66 1015.1